Theta_e
316 340 348 348 347 346 347 347 345 350 352 353 355 353 349 351 352 351 348 347 346 346 344 345 344 342 341 338 338 337 337 336 341 345 348 347 347 347 345 344 346 344 345 345
319 325 330 340 346 346 346 345 340 351 354 354 354 355 351 348 351 351 350 349 346 347 346 346 345 344 342 340 338 336 335 335 343 347 345 345 345 347 348 344 346 346 344 346
323 324 318 319 323 333 334 334 339 340 356 354 356 357 356 351 349 349 349 348 347 348 347 347 346 345 344 342 341 337 333 334 339 346 346 343 345 345 347 345 345 346 346 347
319 318 318 318 320 322 325 324 335 351 354 355 353 353 351 354 354 351 349 350 348 346 345 346 345 345 344 343 343 339 335 336 339 343 347 347 347 349 348 346 344 346 347 349
323 322 319 320 321 321 327 335 343 350 351 354 357 357 350 352 355 355 351 348 350 346 345 346 344 344 344 344 343 342 340 338 339 342 346 347 349 348 347 348 346 347 347 349
324 322 321 323 322 322 343 347 348 350 353 351 346 351 340 349 353 351 350 349 348 348 346 345 345 345 345 345 344 345 345 341 341 341 345 346 349 348 348 348 350 351 350 347
323 323 322 321 329 336 339 342 337 344 348 339 343 353 344 346 350 350 352 349 348 347 349 346 346 346 346 346 346 346 347 347 344 346 348 347 346 345 349 348 349 350 351 349
326 324 323 321 324 329 337 334 327 332 336 332 348 351 344 347 346 346 350 351 348 347 347 349 345 345 347 347 348 347 348 349 348 348 347 347 347 348 349 349 347 348 351 350
326 325 320 321 320 324 326 331 326 328 328 330 334 343 345 346 347 349 348 348 349 348 347 347 347 343 346 346 348 348 348 350 349 349 350 349 347 346 348 346 345 346 347 350
324 327 326 326 323 324 322 321 325 328 330 329 337 347 345 351 348 346 344 344 345 347 346 346 346 345 343 344 347 347 349 350 349 349 349 350 350 349 348 347 346 346 346 347
321 323 328 332 334 333 327 331 330 330 332 328 330 337 345 347 342 342 340 341 341 343 347 346 346 346 344 343 344 346 348 349 349 349 349 350 351 351 348 349 347 346 346 346
323 330 333 334 332 329 332 335 334 332 339 338 338 337 339 343 342 341 341 344 349 349 349 349 345 345 346 346 344 346 347 348 349 348 350 350 351 350 350 350 349 346 346 347
325 330 335 335 333 330 333 333 333 334 337 346 343 335 338 343 345 344 352 349 349 350 347 346 346 346 346 347 347 345 346 346 348 348 344 350 350 349 350 350 348 348 346 346
327 326 331 329 330 332 334 333 332 333 335 336 337 337 337 340 348 348 349 349 348 350 350 348 347 348 347 347 348 348 346 346 350 348 347 349 350 350 350 352 351 348 346 347
330 332 329 328 328 332 332 333 333 335 333 334 330 335 334 336 342 348 347 348 348 350 350 349 349 349 347 347 348 349 348 349 348 350 349 349 347 349 350 351 350 350 350 348
328 334 334 335 334 335 335 334 334 334 334 333 334 335 334 333 341 347 347 346 349 349 347 346 346 346 347 346 347 346 345 348 346 346 346 346 346 345 346 348 349 349 348 350
333 334 336 329 335 336 336 332 332 333 334 334 335 334 337 339 344 347 346 345 346 347 348 347 345 344 346 345 343 343 346 345 347 345 345 343 344 344 345 345 345 346 349 348
332 335 334 331 336 336 328 328 332 332 334 334 336 336 339 340 341 343 343 344 345 346 346 346 344 344 346 345 344 342 342 342 342 342 342 343 342 342 346 344 343 343 343 343
328 332 335 334 333 330 329 332 334 337 335 334 337 336 338 340 342 343 341 340 342 343 340 342 342 342 343 345 345 342 341 340 339 339 339 338 342 341 342 343 342 342 342 340
326 330 328 333 330 329 329 331 333 334 339 333 335 337 341 343 345 342 341 337 339 338 338 339 337 338 340 340 340 339 339 339 339 340 341 339 341 342 341 341 342 341 341 340
330 330 331 334 333 332 330 333 333 341 335 335 337 338 342 345 343 342 340 338 336 336 335 334 335 337 338 339 337 337 338 337 337 338 340 341 341 341 342 340 340 339 337 335
333 333 333 332 333 328 329 335 338 336 335 335 338 339 343 341 340 338 337 336 336 336 335 334 335 336 337 339 338 338 335 336 336 337 338 337 338 337 338 339 333 331 331 328
330 329 331 331 328 331 333 334 333 333 334 337 338 339 341 340 337 338 339 336 334 334 333 335 334 333 335 336 337 336 335 335 335 335 335 335 335 333 333 332 330 328 328 326
326 324 330 330 329 327 327 332 331 332 333 335 336 338 338 338 337 337 336 335 335 335 335 335 336 334 333 333 334 335 335 335 334 333 332 331 332 331 329 329 329 328 326 325
328 327 331 330 330 330 329 329 330 335 334 334 333 336 339 338 337 336 335 335 335 335 334 334 334 333 333 333 333 333 333 333 331 329 329 326 327 329 328 328 326 326 327 326
327 332 330 328 334 335 333 330 333 335 336 334 335 337 338 337 336 335 336 336 335 334 334 334 334 335 333 331 332 331 331 331 329 325 322 321 321 319 319 320 320 326 328 327
Wind_Speed
2 4 6 10 5 5 5 2 1 2 5 8 10 9 10 11 10 13 12 12 13 13 12 11 14 14 13 12 15 15 14 14 11 8 6 4 3 5 5 5 3 2 1 1
3 4 3 4 7 5 6 7 3 1 5 9 5 14 15 11 13 14 16 14 13 13 11 14 15 16 17 16 15 19 17 15 12 9 9 5 5 5 4 6 4 4 2 1
4 1 2 4 5 8 10 9 5 1 6 5 2 6 9 7 10 9 12 15 13 15 15 14 18 19 18 19 19 19 21 19 15 12 10 9 7 6 6 7 7 5 4 2
3 1 3 3 7 9 12 5 7 11 7 0 3 4 2 7 8 13 14 14 16 13 14 14 20 21 22 22 17 19 20 20 18 16 11 10 10 8 5 5 4 5 3 3
3 7 6 7 10 9 3 3 9 11 4 2 4 3 1 2 9 15 16 17 17 19 19 15 16 24 25 19 19 18 19 20 19 18 17 11 9 7 6 5 5 6 4 4
5 0 4 4 3 8 13 12 8 4 1 3 1 3 4 3 2 1 8 17 18 17 17 18 21 20 21 19 18 18 18 21 20 19 18 18 14 11 9 7 6 6 4 5
2 4 2 3 6 7 5 5 2 4 4 4 1 4 7 3 5 4 5 6 16 16 15 16 17 24 25 23 23 21 20 20 22 20 17 18 17 15 10 8 7 6 6 6
4 7 3 3 6 6 9 6 4 7 7 6 3 5 2 1 3 5 5 5 5 14 17 18 19 23 24 25 24 23 21 21 20 20 20 20 18 14 11 10 9 6 8 7
4 2 1 3 1 2 6 5 2 3 1 4 2 4 9 7 8 5 4 4 6 11 15 21 22 24 25 24 27 27 25 23 21 20 20 20 19 17 14 14 12 8 7 9
3 3 2 2 1 8 3 8 3 2 5 8 4 4 4 6 8 6 5 6 3 4 9 14 20 23 24 25 27 26 25 25 26 21 19 20 20 19 16 14 12 11 8 9
5 2 3 4 4 1 4 3 4 3 2 6 7 4 3 5 2 3 4 3 6 6 7 12 17 24 27 18 21 23 24 24 22 22 21 19 20 18 17 15 14 12 10 12
1 2 1 2 3 1 1 1 2 5 4 2 4 4 1 2 3 2 5 4 4 8 9 10 17 20 23 22 21 23 24 24 24 22 21 21 19 18 16 15 15 14 14 12
8 1 3 2 4 3 2 3 2 2 1 6 4 3 1 2 4 3 4 4 4 5 6 5 11 16 20 20 20 20 23 26 21 21 26 18 18 18 18 17 18 17 15 14
6 3 4 5 0 2 4 4 3 3 4 2 8 9 4 4 6 4 4 5 5 3 4 3 6 10 14 18 19 17 20 20 17 18 20 18 18 19 19 17 16 17 17 16
3 5 5 3 1 3 2 4 6 7 5 7 10 8 12 6 7 6 6 6 5 3 1 3 5 7 10 12 14 15 15 13 16 14 15 17 19 18 18 17 16 16 16 17
1 4 4 4 2 1 5 6 7 9 9 11 15 17 8 8 6 6 6 4 5 2 3 4 5 7 10 12 11 13 17 12 11 12 12 12 10 13 18 18 17 16 17 15
5 6 5 6 2 2 8 13 13 9 9 8 10 11 2 6 8 6 4 3 3 3 4 3 3 5 6 9 12 12 15 14 13 14 11 11 11 10 10 11 14 15 14 13
6 5 1 2 5 6 6 2 4 10 10 10 12 10 7 6 3 3 3 4 4 3 6 1 1 2 4 5 8 9 10 10 11 10 10 10 12 12 9 8 9 10 12 14
1 5 3 4 6 5 8 5 6 7 9 4 12 11 7 3 2 6 3 2 1 4 5 8 7 5 3 3 8 9 9 12 12 11 12 11 12 15 14 12 12 10 12 13
5 3 4 3 4 8 4 2 4 4 8 2 4 6 8 7 5 1 4 3 7 8 9 9 11 8 7 5 10 12 9 5 7 10 10 12 11 14 17 15 15 15 14 15
4 3 6 5 5 5 3 2 6 5 3 3 2 5 9 7 2 2 7 6 11 10 9 9 8 6 8 16 16 15 15 13 12 11 6 13 13 14 15 15 16 17 17 16
8 8 4 3 3 6 7 6 5 2 2 3 2 5 8 5 6 8 8 8 10 9 12 9 5 7 10 14 13 11 12 8 7 6 9 10 12 12 17 16 15 16 17 16
4 3 3 7 2 2 8 1 1 2 2 1 4 6 8 7 9 10 10 10 10 6 11 6 6 13 9 10 12 14 10 10 12 15 15 12 14 16 16 18 20 19 18 17
4 4 3 4 4 5 7 6 3 2 1 5 7 10 9 13 13 13 10 8 7 2 5 6 8 14 17 17 19 19 16 16 19 21 19 18 20 20 16 16 17 17 16 12
1 9 6 2 3 2 6 8 6 6 7 9 8 10 10 14 13 14 8 7 12 7 6 6 8 14 17 18 17 16 17 18 19 18 16 15 16 18 19 19 14 12 11 11
6 6 6 3 8 3 4 11 11 11 11 11 13 11 11 12 12 11 9 12 11 8 8 8 10 13 13 16 16 15 13 15 18 17 14 12 13 12 12 13 13 11 10 8
Wind_Direction
45 201 195 203 183 102 120 140 272 249 178 199 228 251 230 200 216 208 205 210 222 221 210 208 208 207 205 202 199 209 212 205 203 196 199 210 212 208 219 187 185 197 241 249
160 234 238 133 189 234 265 286 283 80 170 208 242 251 247 223 223 216 205 209 213 218 213 208 209 210 208 207 207 213 216 210 210 203 208 215 208 209 195 193 205 206 210 246
210 55 96 198 217 234 248 252 198 280 156 208 285 265 238 224 223 230 211 223 221 216 210 215 212 211 213 212 207 212 215 214 219 220 217 221 207 215 220 214 216 202 217 200
249 177 225 237 242 222 273 270 190 148 166 141 229 318 273 223 241 223 221 208 219 222 222 217 216 213 212 217 209 208 212 212 220 222 223 221 204 206 219 208 191 198 205 180
189 179 186 222 238 188 297 154 157 158 146 184 176 254 186 214 238 239 222 217 213 218 223 212 215 216 217 212 210 204 210 213 216 216 215 221 233 224 221 208 201 207 196 196
263 222 213 231 87 170 133 108 101 91 116 239 111 252 277 199 234 227 231 225 214 216 219 221 219 219 218 212 212 206 201 207 212 213 217 217 232 226 217 219 216 206 192 199
216 214 229 202 120 139 186 184 211 225 213 278 93 199 263 238 223 252 266 234 221 213 216 214 208 209 210 208 208 210 204 208 215 213 213 221 232 236 227 227 221 208 214 208
226 188 185 157 228 204 201 239 239 260 237 261 140 226 237 173 219 261 256 245 212 219 217 218 214 207 212 208 204 207 209 210 212 212 219 222 226 232 238 230 222 239 230 200
179 135 56 2 126 215 158 205 27 161 92 249 188 263 263 233 239 213 241 229 266 248 225 220 213 211 210 201 204 206 211 218 211 215 218 219 228 227 233 235 234 241 246 214
178 190 75 121 158 64 233 130 174 182 233 247 210 260 251 220 218 209 238 250 286 285 230 227 219 214 211 210 204 207 212 214 216 214 218 222 220 225 230 234 235 238 236 225
161 255 125 191 38 37 151 183 68 115 271 266 255 241 230 241 195 233 251 253 300 289 250 228 223 216 217 213 206 209 208 212 214 209 210 212 215 224 230 229 239 250 253 243
120 108 86 84 119 62 293 28 230 247 194 234 302 252 41 264 281 262 276 290 308 297 288 245 226 222 218 215 207 208 207 208 211 209 205 209 216 223 226 227 237 248 258 259
173 94 153 181 175 164 232 118 113 115 174 202 227 240 46 298 261 249 276 309 333 319 313 262 222 215 215 214 208 204 201 205 209 212 221 208 212 220 229 225 231 242 247 249
122 137 211 258 135 108 186 186 177 245 253 229 251 281 263 266 276 268 282 301 321 309 318 276 228 224 217 214 207 204 202 206 211 210 215 212 212 218 225 229 226 230 232 238
199 165 191 196 170 196 220 202 198 228 243 248 289 251 279 284 263 271 294 290 305 315 292 258 221 214 211 211 209 195 186 192 200 197 207 216 225 224 224 228 229 228 226 233
120 149 171 189 170 198 261 255 248 249 250 252 262 272 296 264 250 261 284 297 322 322 285 259 239 217 210 193 192 170 182 176 178 192 196 196 199 211 218 216 218 223 227 227
158 148 181 237 180 235 259 250 233 234 230 241 253 281 214 229 241 252 269 269 300 341 334 277 263 240 224 182 171 172 158 158 161 167 158 154 169 179 190 204 214 219 217 216
137 126 159 232 158 237 273 264 266 239 263 247 260 249 229 234 225 259 252 266 266 335 353 274 108 155 170 160 180 181 171 177 181 175 170 173 182 176 166 173 190 201 201 202
112 142 135 220 229 304 268 209 206 212 277 267 252 253 217 197 239 246 226 241 254 44 59 70 73 45 1 233 201 185 186 203 195 189 180 183 183 172 163 159 156 155 148 147
92 91 218 163 234 262 298 151 167 150 275 61 277 252 190 165 230 18 153 127 103 86 76 81 76 53 53 71 145 127 111 138 211 206 205 208 194 200 191 180 169 162 156 152
150 136 213 198 244 272 236 157 154 226 344 347 276 202 179 189 7 85 110 104 90 83 87 89 90 88 79 90 91 99 91 75 72 94 150 192 199 200 195 181 180 163 156 152
181 173 181 153 216 282 165 141 224 33 15 308 214 171 173 124 114 116 111 103 85 83 88 79 78 75 87 124 128 102 85 98 112 90 102 87 113 134 160 161 153 149 144 130
200 217 190 207 198 99 184 221 184 300 303 123 149 151 159 134 135 126 117 96 77 42 86 96 115 88 100 130 139 113 111 115 111 112 108 117 113 116 132 136 134 130 127 123
204 171 202 178 174 217 208 207 234 210 161 132 152 142 138 137 141 128 118 104 111 207 109 114 111 90 86 108 123 124 126 121 111 106 105 108 108 112 110 113 123 125 128 122
122 156 164 207 225 197 204 205 180 146 135 145 141 146 137 146 148 142 140 163 148 159 136 145 111 99 98 106 109 121 126 124 116 112 113 108 108 112 114 117 119 122 131 126
190 163 185 201 172 144 153 179 163 152 157 152 143 141 143 155 141 151 145 150 146 152 147 131 114 109 112 110 105 107 115 120 121 113 106 109 111 112 111 111 106 118 124 129